Showing default

GUANGCHUAN 01, 62111

Orbit data source: Space-Track

GUANGCHUAN 01, 62111 is a Chinese payload satellite in LEO that was launched on Wed, 27 Nov 2024 UTC via a ZHUQUE-2E launch vehicle from the Jiuquan Satellite Launch Center, China (JSC). Payloads include a variety of satellites, spacecraft, and rockets equipped with specific instruments for various scientific and technological missions. These include communications satellites like Starlink; space stations such as the ISS; scientific satellites like the Hubble; Earth observation satellites from companies like Planet Labs, Umbra, and HawkEye 360; GPS; miniature CubeSats for education and research; and military/defense satellites.

Loading next visibility...
GUANGCHUAN 01 details
Identifier
62111, 2024-221A
Orbit
LEO
Last TLE update6 hours ago
Origin
Flag of CNHONGQ? (CN / PRC)
ManufacturerCAST?
MissionOperational spacecraft
Bus & MotorHQ, Unknown motor
Mass~500 kg wet, ~500 kg dry
Launch date (UTC)
2024-11-27 (1 month ago)
Launch vehicle
ZHUQUE-2E
Launch site
Jiuquan Satellite Launch Center, China (JSC)
Object type
Payload
Rocket body
Debris
Shape & HBRUnknown
Radar Cross SectionLarge (>1 m²)

Expand to show TLE details & history

TLE from 6 hours ago
0 GUANGCHUAN 01
1 62111U 24221A   24361.14977507  .00027569  00000-0  70447-3 0  9992
2 62111  49.9647 272.5664 0047434 267.5237  92.0293 15.38047334  4487
Epoch: 2024-12-26T03:35Z
Definitive object data (Epoch: 2024-12-26T03:35:40.566Z)
Latitude0.00003°
Longitude123.51409°
Altitude453.738 km
Speed7.641 km/s
True Right ascension18h 10m 15s
True Declination0° 00' 00"
Sunlit
Object was in daylight at TLE epoch
Visualization TLE readout
Latitude28.29327°
Longitude148.89536°
Altitude473.423 km
Speed7.622 km/s
Apparent Right ascension20h 31m 39s
Apparent Declination-4° 28' 56"
Sunlit
Object is in daylight
Visualization observer readout
Local Sidereal Time09:20:54
Azimuth20.622° NNE
Elevation-52.863°
Doppler factor1
Orbital elements
Apogee altitude485.068 km
Perigee altitude420.265 km
Semi-major axis6,830.803 km
Eccentricity0.0047434
Inclination49.9647°
RAAN272.5664°
Arg. of periapsis267.5237°
True anomaly92.57239°
Mean anomaly92.0293°
Eccentric anomaly92.30086°
Mean motion3.84446 °/min
BSTAR0.00070447
Orbital period93.64 mins
Loading maneuver chart data...
Loading historical data...
Loading historical data...
Loading historical data...
Loading historical data...
Loading historical data...
Loading historical data...
Loading historical data...
Other satellites on launch #221 in the year 2024 (2024-11-27 UTC)

GUANGCHUAN 01 Visibility forecast

Observer location: undefined°, undefined

Span
Click to sort rows by Start time (UTC) header in descending order
Start Az.
Max El. time (UTC)
Max El. Az.
Max El.
End time (UTC)
End Az.
7 mins2024-12-26 20:54:48.241Z213.82° SW2024-12-26 20:57:48.241Z165.389° S34.577°2024-12-26 21:01:48.241Z65.996° ENE
5 mins2024-12-26 22:33:48.241Z282.101° WNW2024-12-26 22:35:48.241Z327.596° NNW27.721°2024-12-26 22:38:48.241Z37.108° NE
4 mins2024-12-27 01:51:48.241Z342.873° N2024-12-27 01:52:48.241Z5.479° NNE21.944°2024-12-27 01:55:48.241Z68.118° E
6 mins2024-12-27 03:28:48.241Z302.735° NW2024-12-27 03:30:48.241Z294.442° NW42.258°2024-12-27 03:34:48.241Z127.315° SE
|